Location: Newark
(40.7066°N, 111.8219°W)
Time: 03:19:52
(UTC+00:00)

deb Explorer IX - Visible Passes

Search period start: 17 November 2019 00:00
Search period end: 27 November 2019 00:00
Orbit: 546 x 1105 km, 38.8° (Epoch: 14 November)

Date Brightness Start Highest point End Pass type
(mag) Time Alt. Az. Time Alt. Az. Time Alt. Az.
17 Nov ? 11:33:42 45° ESE 11:33:42 45° ESE 11:36:56 10° E visible
17 Nov ? 13:15:04 15° W 13:18:55 46° SSW 13:23:07 10° SE visible
18 Nov ? 11:12:57 28° ESE 11:12:57 28° ESE 11:15:09 10° E visible
18 Nov ? 12:54:20 24° W 12:57:02 46° SSW 13:01:20 10° SE visible
19 Nov ? 10:52:14 17° E 10:52:14 17° E 10:53:21 10° E visible
19 Nov ? 12:33:37 35° WSW 12:35:07 46° SSW 12:39:32 10° SE visible
20 Nov ? 12:12:55 46° SSW 12:13:12 46° SSW 12:17:44 10° SE visible
21 Nov ? 11:52:15 41° SSE 11:52:15 41° SSE 11:55:55 10° SE visible
21 Nov ? 13:34:35 10° WSW 13:37:19 15° SW 13:39:51 10° S visible
22 Nov ? 11:31:36 28° SE 11:31:36 28° SE 11:34:06 10° SE visible
22 Nov ? 13:13:00 11° WSW 13:15:22 15° SW 13:18:02 10° S visible
23 Nov ? 11:11:01 18° SE 11:11:01 18° SE 11:12:16 10° SE visible
23 Nov ? 12:52:24 14° SW 12:53:24 15° SW 12:56:13 10° S visible
24 Nov ? 12:31:50 15° SW 12:31:50 15° SW 12:34:23 10° S visible
25 Nov ? 12:11:19 13° SSW 12:11:19 13° SSW 12:12:33 10° S visible
